This demonstration page uses our WeatherBlox Daily Observations layout. Learn more.

Left ArrowRight Arrow

39.51506, -84.39828

Hourly Observations for June 28, 2015

Temp ( °F °C ) Dew Point ( °F °C ) Humidity (%) Winds ( mph kmh ) Pressure ( in mb ) Visibility ( mi km ) Precip ( " mm )
12:15 am 00:15 Partly Cloudy 62 16.6 53 11.5 72 72 W 7 11 29.85 1011 10 16 N/A
12:35 am 00:35 Mostly Cloudy 62 16.6 52 11.2 71 71 W 8 13 29.85 1011 10 16 N/A
12:55 am 00:55 Cloudy 62 16.8 52 11.2 70 70 W 9 15 29.85 1011 10 16 N/A
1:15 am 01:15 Cloudy 62 16.6 52 11.2 71 71 W 9 15 29.85 1011 10 16 N/A
1:35 am 01:35 Cloudy 62 16.6 53 11.5 72 72 W 9 15 29.85 1011 10 16 N/A
1:55 am 01:55 Mostly Cloudy 61 16 53 11.5 75 75 W 10 17 29.85 1011 10 16 N/A
2:15 am 02:15 Partly Cloudy 61 16 53 11.7 76 76 W 12 19 29.85 1011 10 16 N/A
2:35 am 02:35 Clear 61 16 53 11.6 75 75 W 10 17 29.85 1011 10 16 N/A
2:55 am 02:55 Clear 61 16 53 11.8 76 76 W 10 17 29.85 1011 10 16 N/A
3:15 am 03:15 Clear 60 15.8 53 11.7 77 77 WNW 10 17 29.85 1011 10 16 N/A
3:35 am 03:35 Clear 60 15.3 53 11.5 78 78 W 10 17 29.85 1011 10 16 N/A
3:55 am 03:55 Clear 60 15.3 53 11.5 78 78 W 9 15 29.85 1011 10 16 N/A
4:15 am 04:15 Clear 60 15.3 53 11.7 79 79 W 7 11 29.85 1011 10 16 N/A
4:35 am 04:35 Clear 60 15.3 53 11.9 80 80 WNW 6 9 29.85 1011 10 16 N/A
4:55 am 04:55 Clear 60 15.3 53 11.8 80 80 W 6 9 29.85 1011 10 16 N/A
5:15 am 05:15 Clear 60 15.3 53 11.6 79 79 W 7 11 29.85 1011 10 16 N/A
5:35 am 05:35 Clear 60 15.3 53 11.7 79 79 WNW 8 13 29.88 1012 10 16 N/A
5:55 am 05:55 Clear 60 15.3 53 11.7 79 79 W 6 9 29.88 1012 10 16 N/A
6:15 am 06:15 Sunny 58 14.3 52 11 81 81 W 7 11 29.91 1013 10 16 N/A
6:35 am 06:35 Sunny 59 15 53 11.6 80 80 W 8 13 29.88 1012 10 16 N/A
6:55 am 06:55 Sunny 60 15.3 52 11.3 77 77 WNW 8 13 29.88 1012 10 16 N/A
7:15 am 07:15 Sunny 60 15.3 52 11.1 76 76 W 7 11 29.88 1012 10 16 N/A
7:35 am 07:35 Sunny 61 16 52 11.2 73 73 WNW 8 13 29.88 1012 10 16 N/A
7:55 am 07:55 Sunny 62 16.6 52 11.1 70 70 W 7 11 29.91 1013 10 16 N/A
8:15 am 08:15 Sunny 63 17 52 11 68 68 WNW 10 17 29.91 1013 10 16 N/A
8:35 am 08:35 Sunny 64 18 53 11.5 66 66 WNW 9 15 29.91 1013 10 16 N/A
8:55 am 08:55 Sunny 65 18.2 53 11.5 65 65 WNW 10 17 29.91 1013 10 16 N/A
9:15 am 09:15 Sunny 68 19.9 55 12.6 63 63 NW 9 15 29.91 1013 10 16 N/A
9:35 am 09:35 Sunny 69 20.8 55 13 61 61 NNW 8 13 29.94 1014 10 16 N/A
9:55 am 09:55 Sunny 69 20.8 55 12.5 59 59 NW 10 17 29.94 1014 10 16 N/A
10:15 am 10:15 Sunny 69 20.8 53 11.8 57 57 NW 7 11 29.94 1014 10 16 N/A
10:35 am 10:35 Sunny 71 21.7 53 11.4 52 52 NW 10 17 29.94 1014 10 16 N/A
10:55 am 10:55 Sunny 73 22.7 54 12.3 52 52 NW 10 17 29.94 1014 10 16 N/A
11:15 am 11:15 Sunny 74 23.6 55 12.8 51 51 NW 9 15 29.94 1014 10 16 N/A
11:35 am 11:35 Sunny 74 23.6 54 12 48 48 WNW 12 19 29.94 1014 10 16 N/A
11:55 am 11:55 Sunny 74 23.6 52 11.1 45 45 NNW 13 20 29.94 1014 10 16 N/A
12:15 pm 12:15 Sunny 74 23.6 51 10.6 44 44 WNW 8 13 29.94 1014 10 16 N/A
12:35 pm 12:35 Partly Cloudy 76 24.3 51 10.7 42 42 NW 9 15 29.94 1014 10 16 N/A
12:55 pm 12:55 Partly Cloudy 77 24.8 51 10.8 41 41 NW 14 22 29.94 1014 10 16 N/A
1:15 pm 13:15 Sunny 77 25.1 51 10.3 39 39 NW 14 22 29.91 1013 10 16 N/A
1:35 pm 13:35 Sunny 77 25.1 51 10.3 39 39 WNW 12 19 29.91 1013 10 16 N/A
1:55 pm 13:55 Partly Cloudy 77 25.1 49 9.6 38 38 NNW 10 17 29.91 1013 10 16 N/A
2:15 pm 14:15 Partly Cloudy 77 25.1 49 9.4 37 37 NW 10 17 29.91 1013 10 16 N/A
2:35 pm 14:35 Mostly Cloudy 77 25.1 48 8.9 36 36 N 10 17 29.94 1014 10 16 N/A
2:55 pm 14:55 Partly Cloudy 80 26.5 48 9 33 33 NNW 10 17 29.91 1013 10 16 N/A
3:15 pm 15:15 Partly Cloudy 78 25.7 49 9.2 35 35 N 6 9 29.91 1013 10 16 N/A
3:35 pm 15:35 Partly Cloudy 79 26.3 46 7.6 31 31 NW 3 6 29.91 1013 10 16 N/A
3:55 pm 15:55 Mostly Cloudy 78 25.7 49 9.5 36 36 WNW 6 9 29.91 1013 10 16 N/A
4:15 pm 16:15 Partly Cloudy 80 26.5 47 8.1 31 31 W 7 11 29.91 1013 10 16 N/A
4:35 pm 16:35 Mostly Cloudy 80 26.5 46 7.8 31 31 W 6 9 29.91 1013 10 16 N/A
4:55 pm 16:55 Mostly Cloudy 79 26 47 8.4 33 33 WNW 5 7 29.91 1013 10 16 N/A
5:15 pm 17:15 Partly Cloudy 79 26.3 48 9 34 34 W 7 11 29.91 1013 10 16 N/A
5:35 pm 17:35 Sunny 80 26.5 48 9 33 33 WNW 7 11 29.91 1013 10 16 N/A
5:55 pm 17:55 Partly Cloudy 80 26.5 48 8.9 33 33 WNW 6 9 29.91 1013 10 16 N/A
6:15 pm 18:15 Partly Cloudy 78 25.5 47 8.5 34 34 WNW 3 6 29.91 1013 10 16 N/A
6:35 pm 18:35 Sunny 77 25.1 49 9.7 38 38 N N/A 29.91 1013 10 16 N/A
6:55 pm 18:55 Partly Cloudy 77 25 55 12.7 46 46 W 3 6 29.91 1013 10 16 N/A
7:15 pm 19:15 Partly Cloudy 76 24.2 55 12.5 48 48 N N/A 29.91 1013 10 16 N/A
7:35 pm 19:35 Sunny 74 23.6 55 12.7 51 51 N N/A 29.91 1013 10 16 N/A
7:55 pm 19:55 Sunny 74 23.6 59 14.9 58 58 N N/A 29.91 1013 10 16 N/A
8:15 pm 20:15 Sunny 74 23.6 59 15.2 59 59 N N/A 29.91 1013 10 16 N/A
9:55 pm 21:55 Clear 67 19.5 61 16.3 82 82 N N/A 29.91 1013 10 16 N/A
10:15 pm 22:15 Clear 67 19.5 62 16.4 82 82 N N/A 29.91 1013 10 16 N/A
10:35 pm 22:35 Clear 67 19.5 62 16.7 84 84 N N/A 29.91 1013 10 16 N/A
10:55 pm 22:55 Clear 67 19.5 62 16.5 83 83 N N/A 29.91 1013 10 16 N/A
11:15 pm 23:15 Clear 67 19.5 62 16.5 83 83 N N/A 29.91 1013 10 16 N/A
11:35 pm 23:35 Clear 64 18 60 15.4 85 85 N N/A 29.91 1013 10 16 N/A
11:55 pm 23:55 Partly Cloudy 64 18 59 15.2 84 84 N N/A 29.91 1013 10 16 N/A

Powered by AerisWeather